COSMOS 1331 DEB

Satellite information

Favourite Embed

Satellite Type and Status

DEBRISIN ORBIT

Key statistics

Satellite COSMOS 1331 DEB at a glance.

Uptime

15832

Days in orbit

Revolutions

≈ 14.4

Per day

Orbit

LEO

Low Earth Orbit

Inclination

74.0

Latest

Satellite identification and parameters

Extended collection of information and parameters for COSMOS 1331 DEB.

Object identification

Identified? True

Debris? True

Object name: COSMOS 1331 DEB

International designator: 1982-001E

Object number (NORAD): 37863

Object ID (CCSDS): 37863

Country: COMMONWEALTH OF INDEPENDENT STATES (CIS)

Current information (Y/N): Y

RCS size: SMALL

Orbital parameters

Period: 99.965 minutes

Inclination: 74.0432 deg

SMA: 7134.981 km

Apoapsis: 772.877 km

Periapsis: 740.816 km

RAAN: 124.8903 deg

Eccentricy: 0.0022467

Argument of periapsis: 167.6643 deg

Mean anomaly: 192.5067 deg

Mean motion: 14.40500741 rev/day

Mean motion (dot): 0.00000344 rev/day2

B* drag term: 0.00011592 1/REarth

Two-line elements (TLE)

Creation date: May 12, 2025, 10:56 p.m.

Reference frame: TEME

Reference center: EARTH

Epoch: May 12, 2025, 4:50 p.m. UTC

TLE line 0: 0 COSMOS 1331 DEB

TLE line 1: 1 37863U 82001E 25132.70183392 .00000344 00000-0 11592-3 0 9996

TLE line 2: 2 37863 74.0432 124.8903 0022467 167.6643 192.5067 14.40500741144128

Live tracking on map

Real-time ground track for satellite COSMOS 1331 DEB.

In-orbit conjunctions

A list of the most updated potential collisions computed for object COSMOS 1331 DEB.

Target Orbit TCA Probability of collision Miss distance Type
DMSP 5D-2 F13 DEB SSO 2024-10-13 07:02:25 0.000141944 143.0 (m) DEBRIS
FENGYUN 1C DEB SSO 2024-09-25 13:46:25 0.000405547 226.0 (m) DEBRIS

Associated space launch

Military communications satellite

COSMOS 1331 DEB was lifted into orbit during the mission ‘Kosmos-3M | Strela-2M 26’, on board a Kosmos-3M space rocket.

The launch took place on Jan. 7, 1982, 3:38 p.m. from 132/2.

For more information about the launch, click the button.

Launch to space Kosmos-3M | Strela-2M 26
Kosmos-3M | Strela-2M 26

Agency: N/A

Status: Launch Successful

Launch date: Jan. 7, 1982, 3:38 p.m. UTC

Rocket: Kosmos-3M

Launch pad: 132/2

Location: Plesetsk Cosmodrome, Russian Federation

...

Latest news about this satellite

There are no fresh news available about this satellite. Check back as we update our databases every day.


Newsletter sign-up

Weekly statistics, charts and insights to help you stay on top of the space industry.